Rahid Sadygov

Recruteur - Gabala
23 Oct 2027
Samedi
Processus

Personnalité

Adaptabilité (6) Ambition (11) Controverse (15) Loyauté (1) Pression (9) Professionnalisme (14) Sportivité (1) Tempérament (5)

Profil

Style d'entraînement Démocratique
Diplôme National A
Détermination 6
Gestion des joueurs 10
Motivation 8
Discipline 3
Satisfaction professionnelle
99%
Fatigue
0%
Rôle Recruteur
Salaire 26.9K p/s
Contrat 14.03.2029

Performance

Comportement Bon
Efficacité de l'entraînement
30%
Développement des joueurs
30%
Prévention des blessures
55%
Mise en place tactique
45%

Événements récents

A participé à une réunion de recrutement 14j
A participé à une réunion de recrutement 21j
A participé à une réunion de recrutement 28j
A participé à une réunion de recrutement 35j
A participé à une réunion de recrutement 42j
A voté contre une cible de transfert 42j
A participé à une réunion de recrutement 49j
A voté contre une cible de transfert 49j

Suivi en cours

130
Joueur Club Statut Capacité Confiance Observé Dernière observation Dernier vote
Francisco Funes Los Andes Actif 102 / 95 40% 1 27.08.2027 -
Giorgi Beridze Dinamo Tbilisi Actif 118 / 101 40% 1 27.08.2027 -
João Moreira Al Nasr Actif 129 / 138 40% 1 27.08.2027 -
Denzel Jubitana Neftchi Refusé 129 / 130 40% 3 21.06.2027 Refuser
Martin Kramarič Krylya Sovetov Actif 108 / 99 40% 3 21.06.2027 -
Agil Ramazanov Inter Actif 126 / 128 40% 1 21.06.2027 -
Pachu Kapaz Perdu 88 / 83 69% 1 07.06.2027 -
François Kamano Sochi Actif 108 / 106 40% 1 31.05.2027 -
Lucio Castillo Colegiales Actif 104 / 105 40% 1 31.05.2027 -
Araz Medvedev Inter Actif 103 / 105 40% 1 30.05.2027 -
Eren Aydın Zira Perdu 104 / 119 40% 2 28.05.2027 -
Antonis Siatounis Potenza Actif 107 / 114 40% 1 27.05.2027 -
Harold Santiago Mosquera Cerro Porteno Actif 115 / 131 40% 1 26.05.2027 -
Klismahn Neftchi Actif 105 / 116 40% 3 25.05.2027 -
Ismael Akhmat Grozny Perdu 123 / 122 40% 1 25.05.2027 -
Jordan Gabriel Port Vale Actif 105 / 117 40% 2 21.05.2027 -
Nikolay Rasskazov Krylya Sovetov Actif 106 / 131 40% 2 21.05.2027 -
Arvid Brorsson Avellino Actif 114 / 112 40% 1 21.05.2027 -
Jonathan Okoronkwo Torpedo Moscow Actif 110 / 120 40% 3 20.05.2027 -
Georgy Melkadze Akhmat Grozny Actif 124 / 97 40% 1 20.05.2027 -
Andrés Alarcón Dinamo Makhachkala Actif 127 / 129 40% 2 19.05.2027 -
Joe Anderson Barrow AFC Actif 103 / 103 40% 1 19.05.2027 -
Issa Djibrilla Zira Actif 107 / 130 40% 5 18.05.2027 -
Vladis Emmersón Yenisey Actif 102 / 102 40% 2 18.05.2027 -
Iker Pozo Rodina Actif 116 / 124 40% 3 18.05.2027 -
Léo Cordeiro Ural Actif 108 / 118 40% 3 17.05.2027 -
Guima Zira Actif 108 / 119 40% 3 17.05.2027 -
Aleksa Janković Sumgayit Actif 115 / 125 40% 2 17.05.2027 -
Aaron Drinan Swindon Town Actif 109 / 103 40% 5 16.05.2027 -
Leo Goglichidze Rodina Perdu 114 / 100 40% 2 16.05.2027 Plus d'infos
German Onugkha Rodina Actif 122 / 131 40% 2 15.05.2027 -
Dilan Ortíz Ufa Actif 95 / 122 40% 1 15.05.2027 -
Rachid Moumini Sumgayit Actif 120 / 122 40% 1 15.05.2027 -
Darko Todorović Fakel Actif 112 / 117 40% 1 15.05.2027 -
Kamran Aliev SKA Khabarovsk Actif 99 / 86 40% 3 13.05.2027 -
Jáder Obrian Santa Fe Perdu 111 / 116 40% 1 13.05.2027 -
Maksim Samorodov Akhmat Grozny Actif 114 / 125 40% 1 13.05.2027 -
Gonçalo Braga Lusitânia Lourosa Actif 90 / 104 40% 1 13.05.2027 -
Samson Tovide Colchester United Actif 94 / 100 40% 2 12.05.2027 -
Marco Bellich Juve Stabia Actif 125 / 111 40% 2 12.05.2027 -
Ichem Ferrah Pisa Actif 104 / 116 40% 1 12.05.2027 -
Cesare Pogliano Pro Patria Actif 99 / 111 40% 1 12.05.2027 -
Daniil Penchikov Arsenal Tula Actif 101 / 93 40% 1 12.05.2027 -
Sven Karič Nizhniy Novgorod Actif 116 / 110 40% 2 11.05.2027 -
Cəlal Hüseynov Khazar Actif 106 / 114 40% 2 11.05.2027 -
Rob Street Lincoln City Actif 111 / 95 40% 4 10.05.2027 -
Rüstəm Əhmədzadə Sumgayit Actif 110 / 115 40% 1 10.05.2027 -
Davit Volkovi Zira Refusé 123 / 108 69% 3 08.05.2027 Refuser
Ľubomír Tupta Neftchi Actif 110 / 112 40% 4 08.05.2027 -
Musa Qurbanlı Qarabag Actif 107 / 125 40% 1 08.05.2027 -
Isaac Tshibangu Emirates Club Actif 94 / 84 40% 2 07.05.2027 -
Pedro Bicalho Qarabag Actif 122 / 114 40% 2 07.05.2027 -
Chinonso Offor Baltika Actif 102 / 105 40% 1 07.05.2027 -
Diego Barri Castellón Actif 127 / 119 40% 1 07.05.2027 -
Vladislav Sarveli Nizhniy Novgorod Actif 116 / 128 40% 2 06.05.2027 -
Slobodan Tedić Akron Actif 106 / 118 40% 3 06.05.2027 -
Yegor Noskov SKA Khabarovsk Actif 91 / 94 40% 1 06.05.2027 -
Anatoliy Nuriyev Adana Demirspor Actif 119 / 114 40% 1 06.05.2027 -
Giorgi Kantaria Neftekhimik Actif 90 / 110 40% 1 06.05.2027 -
Naoufal Bannis Vitesse Actif 105 / 108 40% 3 05.05.2027 -
Said Aliev Rotor Actif 90 / 79 40% 2 03.05.2027 -
Giuseppe Guadagni Picerno Actif 100 / 113 40% 2 02.05.2027 -
James Tilley Wycombe Wanderers Actif 105 / 114 40% 1 02.05.2027 -
Sam Gale Gillingham Actif 94 / 113 40% 2 30.04.2027 -
Josh Neufville Bradford City Actif 105 / 119 40% 3 30.04.2027 -
Andile Zwane SuperSport United Actif 99 / 118 40% 3 30.04.2027 -
Junior Quitirna Wycombe Wanderers Actif 103 / 102 40% 1 30.04.2027 -
Eldar Ćivić Baltika Refusé 109 / 139 40% 2 28.04.2027 Plus d'infos
Mahmoud Diasty Wadi Degla Actif 111 / 105 40% 2 26.04.2027 -
Bahlul Mammadov Inter Actif 125 / 128 40% 2 26.04.2027 -
Amar Rahmanović Krylya Sovetov Actif 112 / 123 40% 3 24.04.2027 -
Ibourahima Baldé Giugliano Actif 106 / 90 40% 2 24.04.2027 -
Soltmurad Bakaev Rodina Actif 100 / 97 40% 1 24.04.2027 -
Miguel Falé Pacos de Ferreira Actif 99 / 111 40% 3 21.04.2027 -
Vasily Cherov Ufa Actif 91 / 105 40% 2 21.04.2027 -
Stanislav Magkeev Fakel Actif 121 / 119 40% 1 21.04.2027 -
Nikita Pechenkin Sokol Actif 102 / 108 40% 1 21.04.2027 -
Alexandr Yushin Torpedo Moscow Actif 101 / 112 40% 1 21.04.2027 -
Khetag Khosonov Akron Actif 121 / 94 40% 2 19.04.2027 -
Martim Cunha Porto Actif 103 / 99 40% 2 19.04.2027 -
David Karaev KAMAZ Actif 92 / 107 40% 2 19.04.2027 -
Amur Kalmykov Spartak Kostroma Actif 98 / 95 40% 2 19.04.2027 -
Tiago Mamede Portimonense Actif 116 / 108 40% 1 18.04.2027 -
Denis Makarov Krylya Sovetov Actif 116 / 130 40% 1 16.04.2027 -
Sunday Megwo Abia Warriors Actif 97 / 78 40% 1 11.04.2027 -
Damián Puebla Orenburg Actif 117 / 133 40% 1 11.04.2027 -
Nuno Félix Benfica Actif 117 / 128 40% 1 11.04.2027 -
André Miranda Porto Actif 103 / 98 40% 1 11.04.2027 -
Egor Bogomolskiy Zira Actif 103 / 88 40% 2 10.04.2027 -
Milad Jahanbakhsh Rah Ahan Actif 99 / 85 40% 1 10.04.2027 -
Josh Nisbet Roda Actif 106 / 110 40% 1 08.04.2027 -
Razhab Magomedov Dinamo Makhachkala Actif 103 / 110 40% 1 06.04.2027 -
Klayver Rukh Actif 96 / 95 40% 1 06.04.2027 -
Nathan Fogaça Fortaleza Actif 131 / 126 40% 1 06.04.2027 -
Pavel Maslov Chaika Actif 95 / 115 40% 2 05.04.2027 -
Vladislav Malkevich Ural Actif 97 / 96 40% 1 03.04.2027 -
Bəhlul Mustafazadə Qarabag Actif 128 / 123 40% 1 30.03.2027 -
Markus Jensen Nacional Actif 114 / 115 40% 1 27.03.2027 -
Alessio Rizza Livorno Actif 103 / 109 40% 1 26.03.2027 -
Marat Bokoev Akron Actif 107 / 95 40% 1 26.03.2027 -
Pinheiro Caio Fortaleza Actif 120 / 121 40% 1 26.03.2027 -
Sessi D'Almeida Neftchi Actif 105 / 97 40% 1 25.03.2027 -
Edarlyn Reyes Arsenal Tula Actif 104 / 87 40% 3 23.03.2027 -
Cédric Badolo Sumgayit Actif 105 / 95 40% 1 23.03.2027 -
Ismayil Ibrahimli Zira Actif 113 / 99 40% 1 22.03.2027 -
Ifeanyi Mathew Neftchi Actif 109 / 104 40% 1 22.03.2027 -
Oumar Camara Vitoria Guimaraes Actif 118 / 130 40% 1 21.03.2027 -
Brendan Wiredu Plymouth Argyle Actif 103 / 99 40% 3 16.03.2027 -
Giorgi Papunashvili Zira Actif 101 / 117 40% 2 13.03.2027 -
Ekain Orobengoa Real Sociedad Actif 108 / 110 40% 1 13.03.2027 -
Arsen Adamov Akhmat Grozny Actif 126 / 130 40% 1 13.03.2027 -
Temirkan Sundukov Dinamo Makhachkala Actif 103 / 92 40% 2 12.03.2027 -
Job Ochieng Real Sociedad Actif 105 / 112 40% 1 11.03.2027 -
Alexandr Saplinov Volga Actif 90 / 87 40% 1 09.03.2027 -
Andrej Todoroski TSC Actif 101 / 118 40% 1 08.03.2027 -
Kirill Malyarov Shinnik Actif 104 / 83 40% 1 03.03.2027 -
Miroslav Bogosavac Akhmat Grozny Actif 118 / 127 40% 2 02.03.2027 -
Oleksiy Kashchuk Qarabag Actif 122 / 123 40% 1 02.03.2027 -
Nikolay Giorgobiani Fakel Actif 110 / 108 40% 1 25.02.2027 -
Alexey Berdnikov Chelyabinsk Actif 90 / 88 40% 1 21.02.2027 -
Tiago Almeida Sumgayit Actif 111 / 124 40% 1 21.02.2027 -
Garrik Levin Chelyabinsk Actif 105 / 105 40% 1 18.02.2027 -
Brahim Konaté Zira Actif 115 / 120 40% 1 18.02.2027 -
Moustapha Seck Neftchi Actif 102 / 104 40% 1 08.02.2027 -
Vyacheslav Yakimov Fakel Actif 99 / 127 40% 1 07.02.2027 -
Júlio Romão Akhmat Grozny Actif 128 / 128 40% 1 04.02.2027 -
Marko Janković Qarabag Actif 127 / 114 40% 2 02.02.2027 -
Nikita Kakkoev Nizhniy Novgorod Actif 110 / 105 40% 2 01.02.2027 -
Lucas Acosta Aldosivi Actif 112 / 128 40% 1 02.08.2026 -
Ander Cantero Burgos Actif 118 / 124 40% 1 02.08.2026 -